CST,Max TemperatureF,Mean TemperatureF,Min TemperatureF,Max Dew PointF,MeanDew PointF,Min DewpointF,Max Humidity, Mean Humidity, Min Humidity, Max Sea Level PressureIn, Mean Sea Level PressureIn, Min Sea Level PressureIn, Max VisibilityMiles, Mean VisibilityMiles, Min VisibilityMiles, Max Wind SpeedMPH, Mean Wind SpeedMPH, Max Gust SpeedMPH,PrecipitationIn, CloudCover, Events, WindDirDegrees
2014-2-1,59,47,35,46,37,32,93,72,47,30.01,29.92,29.83,10,8,0,26,9,32,0.35,7,,191
2014-2-2,35,30,26,34,26,19,93,83,74,30.24,30.16,29.98,10,6,1,14,9,20,0.33,8,,349
2014-2-3,30,24,19,19,18,14,93,75,60,30.37,30.30,30.17,10,10,8,12,7,16,0.05,3,,6
2014-2-4,32,26,21,28,24,18,93,82,69,30.32,30.11,29.82,10,7,1,22,7,24,0.81,4,,60
2014-2-5,30,26,19,28,21,16,93,83,74,30.49,30.19,29.81,10,7,2,15,3,20,0.02,8,,309
2014-2-6,19,14,8,16,7,-2,86,75,62,30.58,30.52,30.47,10,10,6,13,8,17,0.00,5,,322
2014-2-7,19,11,5,14,5,-2,86,72,67,30.55,30.47,30.36,10,10,10,9,4,,0.01,2,,88
2014-2-8,30,24,19,27,20,12,93,85,74,30.37,30.25,30.16,10,6,0,9,5,,0.01,8,,130
2014-2-9,30,24,19,28,22,14,93,81,64,30.32,30.21,30.12,10,7,1,12,5,,0.00,8,,333
2014-2-10,19,14,8,16,5,-4,86,66,57,30.46,30.40,30.30,10,10,8,14,8,17,0.00,3,,343
2014-2-11,21,13,5,9,3,-4,78,65,49,30.51,30.44,30.34,10,10,10,13,7,17,0.00,0,,19
2014-2-12,33,24,14,19,13,7,79,65,51,30.35,30.15,29.99,10,10,8,10,6,,0.00,0,,29
2014-2-13,41,26,12,25,16,7,86,63,42,29.99,29.87,29.74,10,10,6,14,5,16,0.00,0,,225
2014-2-14,37,28,19,32,25,10,93,81,68,30.01,29.77,29.62,10,8,1,21,7,30,0.17,5,,287
2014-2-15,28,20,12,21,14,7,85,72,59,30.22,30.12,30.02,10,10,4,15,8,20,0.00,4,,223
2014-2-16,33,27,21,25,21,18,86,74,64,30.27,30.15,30.00,10,10,7,12,5,,0.00,4,,336
2014-2-17,42,34,26,39,28,19,93,79,70,30.23,30.02,29.76,10,9,2,21,9,31,0.18,4,,170
2014-2-18,55,44,33,36,29,25,75,58,38,30.12,29.99,29.80,10,10,10,16,9,23,0.00,0,,195
2014-2-19,53,43,33,45,35,21,100,71,37,30.06,29.96,29.79,10,10,0,15,8,20,0.00,0,,235
2014-2-20,66,50,33,57,47,30,100,78,61,29.87,29.68,29.50,10,10,7,32,14,50,0.02,6,Thunderstorm,188
2014-2-21,51,43,35,30,24,16,75,51,26,30.00,29.94,29.81,10,10,10,18,12,32,0.02,0,,228
2014-2-22,64,48,33,34,27,23,81,48,24,30.08,30.00,29.91,10,10,10,17,10,22,0.00,0,,213
2014-2-23,42,32,23,32,25,16,81,68,52,30.30,30.16,30.01,10,10,10,20,9,23,0.00,3,,5
2014-2-24,37,28,19,18,15,10,93,55,33,30.38,30.30,30.22,10,10,10,9,6,,0.00,1,,8
2014-2-25,35,30,24,23,18,16,86,62,52,30.27,30.22,30.19,10,10,2,15,7,18,0.00,7,,356
2014-2-26,24,19,14,16,8,1,80,61,43,30.31,30.17,29.99,10,10,7,18,11,24,0.00,2,,302
2014-2-27,30,24,17,16,7,0,73,49,29,30.16,30.07,29.94,10,10,10,21,10,25,0.00,0,,314
2014-2-28,42,30,17,25,11,7,80,48,25,30.19,30.11,30.01,10,10,10,13,8,16,0.00,1,,108